Location: Dittelspoint
(48.7198°N, 10.7214°E)
Time: 09:07:18
(UTC+00:00)

Cosmos 1825 - Pass Details

Date: 09 April 2020
Orbit: 502 x 509 km, 82.5° (Epoch: 23 May)

Event Time Altitude Azimuth Distance (km) Brightness Sun altitude
Rises 20:00:14 0° 359° (N) 2,629 6.4 -18.6°
Reaches altitude 10° 20:02:35 10° 10° (N) 1,737 5.2 -18.9°
Enters shadow 20:05:34 29° 61° (ENE) 969 3.3 -19.3°
